COSMOS 1500

Satellite information

Favourite Embed

Satellite Type and Status

PAYLOADDECAYED

Key statistics

Satellite COSMOS 1500 at a glance.

Uptime

15233

Days in orbit

Revolutions

≈ 16.5

Per day

Orbit

LEO

Low Earth Orbit

Inclination

82.5

Latest

Satellite identification and parameters

Extended collection of information and parameters for COSMOS 1500.

Object identification

Identified? True

Debris? False

Object name: COSMOS 1500

International designator: 1983-099A

Object number (NORAD): 14372

Object ID (CCSDS): 14372

Country: COMMONWEALTH OF INDEPENDENT STATES (CIS)

Current information (Y/N): Y

RCS size: LARGE

Orbital parameters

Decay date: June 12, 2025

Period: 87.348 minutes

Inclination: 82.4518 deg

SMA: 6521.218 km

Apoapsis: 151.101 km

Periapsis: 135.065 km

RAAN: 299.7243 deg

Eccentricy: 0.0012295

Argument of periapsis: 276.1066 deg

Mean anomaly: 202.9749 deg

Mean motion: 16.48578677 rev/day

Mean motion (dot): 0.12617911 rev/day2

B* drag term: 0.00017091 1/REarth

Two-line elements (TLE)

Creation date: June 12, 2025, 1:56 a.m.

Reference frame: TEME

Reference center: EARTH

Epoch: June 12, 2025, 12:28 a.m. UTC

TLE line 0: 0 COSMOS 1500

TLE line 1: 1 14372U 83099A 25163.02008995 .12617911 -12821-5 17091-3 0 9995

TLE line 2: 2 14372 82.4518 299.7243 0012295 276.1066 202.9749 16.48578677282734

Live tracking on map

Satellite COSMOS 1500 has decayed and is no longer in orbit. No tracking available.

In-orbit conjunctions

Satellite COSMOS 1500 has decayed and is no longer in orbit. No conjunctions available.

Associated space launch

Experimental ocean-monitoring satellite

COSMOS 1500 was lifted into orbit during the mission ‘Tsiklon-3 | Okean-OE 1’, on board a Tsiklon-3 space rocket.

The launch took place on Sept. 28, 1983, 7:59 a.m. from 32/1.

For more information about the launch, click the button.

Launch to space Tsiklon-3 | Okean-OE 1
Tsiklon-3 | Okean-OE 1

Agency: N/A

Status: Launch Successful

Launch date: Sept. 28, 1983, 7:59 a.m. UTC

Rocket: Tsiklon-3

Launch pad: 32/1

Location: Plesetsk Cosmodrome, Russian Federation

...

Latest news about this satellite

There are no fresh news available about this satellite. Check back as we update our databases every day.


Newsletter sign-up

Weekly statistics, charts and insights to help you stay on top of the space industry.